Location: Brno
(49.2000°N, 16.6330°E)
Time: 13:59:58
(UTC+01:00)

ISS - Visible Passes

Search period start: 11 February 2016 00:00
Search period end: 21 February 2016 00:00
Orbit: 398 x 408 km, 51.6° (Epoch: 11 February)

Date Brightness Start Highest point End Pass type
(mag) Time Alt. Az. Time Alt. Az. Time Alt. Az.
11 Feb -3.0 17:37:30 10° W 17:40:43 58° N 17:43:56 10° ENE visible
11 Feb -2.5 19:14:11 10° WNW 19:16:45 48° NW 19:16:45 48° NW visible
12 Feb -3.0 18:21:26 10° WNW 18:24:38 54° N 18:26:13 26° ENE visible
12 Feb -0.4 19:57:57 10° WNW 19:58:51 17° WNW 19:58:51 17° WNW visible
13 Feb -3.4 19:05:12 10° WNW 19:08:20 82° NW 19:08:20 82° NW visible
14 Feb -3.3 18:12:26 10° WNW 18:15:40 67° NNE 18:17:51 19° E visible
14 Feb -0.9 19:48:59 10° W 19:50:29 22° W 19:50:29 22° W visible
15 Feb -3.0 18:56:06 10° WNW 18:59:19 57° SSW 19:00:02 44° SSE visible
16 Feb -3.3 18:03:15 10° WNW 18:06:32 85° SSW 18:09:38 11° ESE visible
16 Feb -1.0 19:40:10 10° W 19:42:17 19° SW 19:42:17 19° SW visible
17 Feb -1.8 18:47:00 10° W 18:49:57 32° SSW 18:51:59 16° SSE visible
18 Feb -2.5 17:54:01 10° WNW 17:57:11 50° SSW 18:00:20 10° SE visible
18 Feb -0.2 19:32:33 10° SW 19:32:59 10° SW 19:33:26 10° SW visible
19 Feb -0.6 18:38:07 10° W 18:40:21 17° SW 18:42:34 10° S visible
